This is the latest recevied weather packets stored in our database for station/object SP4MAZ-13. If no packets are shown the sender has not sent any weather packets the latest 10 day(s).
| Time | Temp. | Humidity | Pressure | Rain* | Wind** | Luminosity | Snow |
|---|---|---|---|---|---|---|---|
| 1777882564 | 24.44° C | 30% | 2147.4 hPa | - | - | - | - |
| 1777882263 | 25° C | 31% | 2147.4 hPa | - | - | - | - |
| 1777881960 | 24.44° C | 34% | 2147.4 hPa | - | - | - | - |
| 1777881657 | 24.44° C | 33% | 2147.4 hPa | - | - | - | - |
| 1777881353 | 24.44° C | 31% | 2147.4 hPa | - | - | - | - |
| 1777881052 | 24.44° C | 33% | 2147.4 hPa | - | - | - | - |
| 1777880748 | 23.89° C | 32% | 2147.4 hPa | - | - | - | - |
| 1777880445 | 23.89° C | 34% | 2147.4 hPa | - | - | - | - |
| 1777880142 | 23.89° C | 33% | 2147.4 hPa | - | - | - | - |
| 1777879839 | 23.33° C | 35% | 2147.4 hPa | - | - | - | - |
| 1777879535 | 22.78° C | 36% | 2147.4 hPa | - | - | - | - |
| 1777879231 | 22.78° C | 33% | 2147.4 hPa | - | - | - | - |
| 1777878928 | 22.78° C | 35% | 2147.4 hPa | - | - | - | - |
| 1777878626 | 22.22° C | 35% | 2147.4 hPa | - | - | - | - |
| 1777878321 | 22.22° C | 35% | 2147.4 hPa | - | - | - | - |
| 1777878018 | 21.67° C | 36% | 2147.4 hPa | - | - | - | - |
| 1777877715 | 21.11° C | 36% | 2147.4 hPa | - | - | - | - |
| 1777877411 | 21.11° C | 35% | 2147.4 hPa | - | - | - | - |
| 1777877109 | 21.67° C | 37% | 2147.4 hPa | - | - | - | - |
| 1777876805 | 21.11° C | 38% | 2147.4 hPa | - | - | - | - |
| 1777876502 | 20.56° C | 37% | 2147.4 hPa | - | - | - | - |
| 1777876198 | 20.56° C | 38% | 2147.4 hPa | - | - | - | - |
| 1777875894 | 20° C | 39% | 2147.4 hPa | - | - | - | - |
| 1777875592 | 20° C | 38% | 2147.4 hPa | - | - | - | - |
| 1777875288 | 20° C | 40% | 2147.4 hPa | - | - | - | - |
* Rain since midnight (hover to see other rain measurements)
** Current wind speed in m/s (hover to see current wind gust speed)